AZU4076 SBSI-SBKP

Flight info

Callsign AZU4076
Flight time 2h 3m
Altitude 39000
Route OBKAV DCT MIPAD UZ87 PALCA UM411 UTLOT
Aircraft A20N/M-SDE2E3FGHIRWXY/LB1

Departure

Time 2026-05-06 02:50
Airport Presidente João Batista Figueiredo Airport (SBSI)

Arrival

Time 2026-05-06 04:54
Airport Viracopos International Airport (SBKP)
Time Latitude Longitude Altitude Speed Heading
2026-05-06 01:59 -11.87802 -55.58250 1227 ft 0 kts 101°
2026-05-06 02:04 -11.87803 -55.58245 1227 ft 3 kts 101°
2026-05-06 02:04 -11.87810 -55.58219 1227 ft 0 kts 286°
2026-05-06 02:05 -11.87811 -55.58215 1227 ft 0 kts 286°
2026-05-06 02:14 -11.87834 -55.58250 1227 ft 0 kts 104°
2026-05-06 02:38 -11.87828 -55.58272 1228 ft 4 kts 104°
2026-05-06 02:38 -11.87822 -55.58294 1227 ft 1 kts 105°
2026-05-06 02:38 -11.87821 -55.58297 1227 ft 0 kts 105°
2026-05-06 02:45 -11.87824 -55.58296 1227 ft 0 kts 134°
2026-05-06 02:45 -11.87828 -55.58297 1227 ft 1 kts 177°
2026-05-06 02:45 -11.87841 -55.58304 1227 ft 5 kts 217°
2026-05-06 02:46 -11.87846 -55.58349 1227 ft 8 kts 285°
2026-05-06 02:46 -11.87832 -55.58403 1226 ft 8 kts 282°
2026-05-06 02:46 -11.87827 -55.58451 1224 ft 1 kts 231°
2026-05-06 02:46 -11.87830 -55.58452 1225 ft 1 kts 206°
2026-05-06 02:47 -11.87881 -55.58469 1225 ft 13 kts 194°
2026-05-06 02:47 -11.87988 -55.58497 1227 ft 18 kts 195°
2026-05-06 02:47 -11.88128 -55.58535 1228 ft 23 kts 194°
2026-05-06 02:47 -11.88293 -55.58579 1240 ft 26 kts 194°
2026-05-06 02:48 -11.88472 -55.58626 1238 ft 26 kts 195°
2026-05-06 02:48 -11.88647 -55.58674 1232 ft 25 kts 194°
2026-05-06 02:48 -11.88815 -55.58718 1232 ft 24 kts 195°
2026-05-06 02:48 -11.88979 -55.58762 1240 ft 24 kts 194°
2026-05-06 02:49 -11.89132 -55.58801 1236 ft 10 kts 179°
2026-05-06 02:49 -11.89188 -55.58790 1232 ft 7 kts 195°
2026-05-06 02:49 -11.89193 -55.58814 1245 ft 2 kts 311°
2026-05-06 02:49 -11.89185 -55.58814 1242 ft 4 kts
2026-05-06 02:50 -11.89098 -55.58793 1237 ft 31 kts 15°
2026-05-06 02:50 -11.88625 -55.58667 1232 ft 109 kts 14°
2026-05-06 02:50 -11.87666 -55.58413 1423 ft 155 kts 17°
2026-05-06 02:50 -11.86676 -55.58074 2331 ft 147 kts 36°
2026-05-06 02:51 -11.86132 -55.57224 2954 ft 159 kts 82°
2026-05-06 02:51 -11.86179 -55.55984 3255 ft 186 kts 93°
2026-05-06 02:51 -11.86262 -55.54591 3605 ft 210 kts 89°
2026-05-06 02:51 -11.86220 -55.53007 3908 ft 235 kts 86°
2026-05-06 02:52 -11.86142 -55.51289 4451 ft 247 kts 87°
2026-05-06 02:52 -11.86069 -55.49514 5159 ft 253 kts 88°
2026-05-06 02:52 -11.86006 -55.47700 5898 ft 258 kts 88°
2026-05-06 02:52 -11.86175 -55.45874 6630 ft 263 kts 110°
2026-05-06 02:53 -11.87242 -55.44354 7358 ft 269 kts 136°
2026-05-06 02:53 -11.88704 -55.43143 8152 ft 272 kts 141°
2026-05-06 02:53 -11.90221 -55.41975 8953 ft 275 kts 141°
2026-05-06 02:53 -11.91749 -55.40783 9755 ft 277 kts 141°
2026-05-06 02:54 -11.93287 -55.39558 10375 ft 287 kts 140°
2026-05-06 02:54 -11.94879 -55.38272 10670 ft 306 kts 140°
2026-05-06 02:54 -11.96591 -55.36877 11017 ft 322 kts 140°
2026-05-06 02:54 -11.98362 -55.35430 11458 ft 332 kts 140°
2026-05-06 02:55 -12.00183 -55.33938 11992 ft 337 kts 140°
2026-05-06 02:55 -12.02020 -55.32433 12642 ft 340 kts 139°
2026-05-06 02:55 -12.03873 -55.30914 13224 ft 344 kts 139°
2026-05-06 02:55 -12.05753 -55.29370 13801 ft 349 kts 139°
2026-05-06 02:56 -12.07654 -55.27809 14312 ft 353 kts 139°
2026-05-06 02:56 -12.09573 -55.26234 14855 ft 355 kts 139°
2026-05-06 02:56 -12.11505 -55.24646 15444 ft 357 kts 139°
2026-05-06 02:56 -12.13446 -55.23051 16004 ft 360 kts 139°
2026-05-06 02:57 -12.15403 -55.21443 16552 ft 362 kts 139°
2026-05-06 02:57 -12.17376 -55.19821 17110 ft 365 kts 139°
2026-05-06 02:57 -12.19362 -55.18188 17642 ft 368 kts 140°
2026-05-06 02:57 -12.21364 -55.16541 18160 ft 371 kts 140°
2026-05-06 02:58 -12.23385 -55.14879 18613 ft 374 kts 140°
2026-05-06 02:58 -12.25422 -55.13203 19026 ft 377 kts 140°
2026-05-06 02:58 -12.27471 -55.11517 19431 ft 380 kts 140°
2026-05-06 02:58 -12.29537 -55.09816 19828 ft 383 kts 140°
2026-05-06 02:59 -12.31618 -55.08102 20228 ft 386 kts 140°
2026-05-06 02:59 -12.33716 -55.06375 20649 ft 388 kts 140°
2026-05-06 02:59 -12.35832 -55.04637 21053 ft 392 kts 141°
2026-05-06 02:59 -12.38044 -55.02995 21476 ft 395 kts 145°
2026-05-06 03:00 -12.40347 -55.01441 21920 ft 398 kts 147°
2026-05-06 03:00 -12.42704 -54.99928 22372 ft 401 kts 147°
2026-05-06 03:00 -12.45087 -54.98432 22819 ft 404 kts 148°
2026-05-06 03:00 -12.47495 -54.96928 23263 ft 407 kts 148°
2026-05-06 03:01 -12.49922 -54.95408 23694 ft 411 kts 148°
2026-05-06 03:01 -12.52362 -54.93871 24077 ft 413 kts 148°
2026-05-06 03:01 -12.54816 -54.92316 24472 ft 415 kts 148°
2026-05-06 03:01 -12.57275 -54.90753 24866 ft 418 kts 148°
2026-05-06 03:02 -12.59749 -54.89177 25270 ft 420 kts 148°
2026-05-06 03:02 -12.62233 -54.87592 25657 ft 422 kts 148°
2026-05-06 03:02 -12.64732 -54.85998 26037 ft 424 kts 148°
2026-05-06 03:02 -12.67206 -54.84418 26393 ft 426 kts 148°
2026-05-06 03:03 -12.69732 -54.82806 26767 ft 428 kts 148°
2026-05-06 03:03 -12.72265 -54.81189 27119 ft 431 kts 149°
2026-05-06 03:03 -12.74815 -54.79562 27476 ft 433 kts 149°
2026-05-06 03:03 -12.77375 -54.77927 27812 ft 435 kts 149°
2026-05-06 03:04 -12.79948 -54.76284 28164 ft 437 kts 149°
2026-05-06 03:04 -12.82533 -54.74633 28498 ft 439 kts 149°
2026-05-06 03:04 -12.85132 -54.72972 28814 ft 441 kts 149°
2026-05-06 03:04 -12.87745 -54.71302 29139 ft 444 kts 149°
2026-05-06 03:05 -12.90372 -54.69622 29449 ft 446 kts 149°
2026-05-06 03:05 -12.93010 -54.67936 29777 ft 448 kts 150°
2026-05-06 03:05 -12.95657 -54.66243 30076 ft 450 kts 150°
2026-05-06 03:05 -12.98320 -54.64539 30331 ft 452 kts 150°
2026-05-06 03:06 -13.00996 -54.62827 30582 ft 454 kts 150°
2026-05-06 03:06 -13.03682 -54.61107 30858 ft 456 kts 150°
2026-05-06 03:06 -13.06368 -54.59387 31203 ft 455 kts 150°
2026-05-06 03:06 -13.09049 -54.57669 31563 ft 454 kts 150°
2026-05-06 03:07 -13.11725 -54.55954 31909 ft 453 kts 150°
2026-05-06 03:07 -13.14395 -54.54243 32246 ft 453 kts 150°
2026-05-06 03:07 -13.17063 -54.52533 32613 ft 451 kts 150°
2026-05-06 03:07 -13.19722 -54.50828 32965 ft 450 kts 150°
2026-05-06 03:08 -13.22378 -54.49125 33288 ft 450 kts 150°
2026-05-06 03:08 -13.24172 -54.47974 33509 ft 449 kts 150°
2026-05-06 03:08 -13.27680 -54.45723 33928 ft 449 kts 150°
2026-05-06 03:08 -13.30328 -54.44024 34203 ft 448 kts 150°
2026-05-06 03:09 -13.32081 -54.42899 34380 ft 448 kts 150°
2026-05-06 03:09 -13.34720 -54.41204 34653 ft 447 kts 150°
2026-05-06 03:09 -13.37357 -54.39511 34915 ft 447 kts 150°
2026-05-06 03:09 -13.39990 -54.37819 35173 ft 446 kts 150°
2026-05-06 03:10 -13.42618 -54.36130 35424 ft 446 kts 150°
2026-05-06 03:10 -13.45246 -54.34441 35655 ft 445 kts 150°
2026-05-06 03:10 -13.47870 -54.32754 35896 ft 445 kts 150°
2026-05-06 03:10 -13.50490 -54.31069 36120 ft 444 kts 150°
2026-05-06 03:11 -13.53112 -54.29383 36348 ft 444 kts 150°
2026-05-06 03:11 -13.55729 -54.27699 36573 ft 444 kts 150°
2026-05-06 03:11 -13.58342 -54.26017 36792 ft 443 kts 150°
2026-05-06 03:11 -13.60958 -54.24333 37009 ft 443 kts 150°
2026-05-06 03:12 -13.63566 -54.22654 37229 ft 442 kts 150°
2026-05-06 03:12 -13.66172 -54.20975 37421 ft 442 kts 150°
2026-05-06 03:12 -13.68772 -54.19300 37638 ft 441 kts 150°
2026-05-06 03:12 -13.71375 -54.17623 37848 ft 440 kts 150°
2026-05-06 03:13 -13.73969 -54.15951 38043 ft 440 kts 150°
2026-05-06 03:13 -13.76565 -54.14277 38228 ft 440 kts 150°
2026-05-06 03:13 -13.79152 -54.12608 38408 ft 439 kts 150°
2026-05-06 03:13 -13.81740 -54.10939 38582 ft 439 kts 150°
2026-05-06 03:14 -13.84327 -54.09269 38743 ft 439 kts 150°
2026-05-06 03:14 -13.86907 -54.07604 38870 ft 438 kts 150°
2026-05-06 03:14 -13.89490 -54.05936 38991 ft 438 kts 150°
2026-05-06 03:15 -13.94668 -54.02592 39037 ft 439 kts 150°
2026-05-06 03:15 -13.99882 -53.99224 39045 ft 446 kts 150°
2026-05-06 03:16 -14.05181 -53.95800 39050 ft 453 kts 150°
2026-05-06 03:16 -14.10552 -53.92325 39043 ft 458 kts 150°
2026-05-06 03:17 -14.15940 -53.88836 39043 ft 457 kts 150°
2026-05-06 03:17 -14.21317 -53.85351 39048 ft 457 kts 150°
2026-05-06 03:18 -14.26698 -53.81864 39042 ft 457 kts 150°
2026-05-06 03:18 -14.32080 -53.78374 39046 ft 457 kts 150°
2026-05-06 03:19 -14.37457 -53.74885 39052 ft 457 kts 150°
2026-05-06 03:19 -14.42838 -53.71392 39045 ft 457 kts 150°
2026-05-06 03:20 -14.50899 -53.66155 39051 ft 457 kts 150°
2026-05-06 03:20 -14.56282 -53.62666 39051 ft 457 kts 151°
2026-05-06 03:21 -14.61715 -53.59369 39053 ft 456 kts 153°
2026-05-06 03:21 -14.67231 -53.56140 39053 ft 456 kts 153°
2026-05-06 03:22 -14.72748 -53.52905 39053 ft 456 kts 153°
2026-05-06 03:22 -14.78252 -53.49653 39053 ft 456 kts 153°
2026-05-06 03:23 -14.83750 -53.46394 39053 ft 456 kts 153°
2026-05-06 03:23 -14.89251 -53.43129 39052 ft 456 kts 153°
2026-05-06 03:24 -14.94751 -53.39864 39046 ft 456 kts 153°
2026-05-06 03:24 -15.00249 -53.36599 39049 ft 456 kts 153°
2026-05-06 03:25 -15.05771 -53.33380 39047 ft 456 kts 154°
2026-05-06 03:25 -15.11317 -53.30196 39048 ft 456 kts 154°
2026-05-06 03:26 -15.16866 -53.27011 39045 ft 456 kts 154°
2026-05-06 03:26 -15.22410 -53.23820 39047 ft 456 kts 154°
2026-05-06 03:27 -15.27942 -53.20629 39044 ft 455 kts 154°
2026-05-06 03:27 -15.33478 -53.17435 39045 ft 455 kts 154°
2026-05-06 03:28 -15.39010 -53.14240 39042 ft 455 kts 154°
2026-05-06 03:28 -15.44502 -53.11067 39042 ft 455 kts 154°
2026-05-06 03:29 -15.50032 -53.07866 39043 ft 455 kts 154°
2026-05-06 03:29 -15.55567 -53.04657 39043 ft 456 kts 154°
2026-05-06 03:30 -15.61110 -53.01441 39047 ft 456 kts 154°
2026-05-06 03:30 -15.66650 -52.98225 39047 ft 456 kts 154°
2026-05-06 03:31 -15.72179 -52.95014 39046 ft 456 kts 154°
2026-05-06 03:31 -15.77709 -52.91800 39047 ft 455 kts 155°
2026-05-06 03:32 -15.83242 -52.88583 39048 ft 456 kts 155°
2026-05-06 03:32 -15.88768 -52.85368 39048 ft 456 kts 155°
2026-05-06 03:33 -15.94301 -52.82146 39049 ft 456 kts 154°
2026-05-06 03:33 -15.99830 -52.78925 39053 ft 456 kts 154°
2026-05-06 03:34 -16.05357 -52.75702 39049 ft 455 kts 155°
2026-05-06 03:34 -16.10877 -52.72482 39048 ft 454 kts 155°
2026-05-06 03:35 -16.16391 -52.69264 39046 ft 454 kts 155°
2026-05-06 03:35 -16.21904 -52.66044 39056 ft 455 kts 155°
2026-05-06 03:36 -16.27420 -52.62820 39051 ft 454 kts 155°
2026-05-06 03:36 -16.32928 -52.59598 39064 ft 454 kts 155°
2026-05-06 03:37 -16.38433 -52.56376 39065 ft 454 kts 155°
2026-05-06 03:37 -16.43947 -52.53148 39070 ft 454 kts 155°
2026-05-06 03:38 -16.49411 -52.49945 39065 ft 453 kts 155°
2026-05-06 03:38 -16.54902 -52.46725 39076 ft 452 kts 155°
2026-05-06 03:39 -16.60382 -52.43509 39072 ft 452 kts 155°
2026-05-06 03:39 -16.65865 -52.40292 39074 ft 452 kts 155°
2026-05-06 03:40 -16.71349 -52.37076 39081 ft 452 kts 155°
2026-05-06 03:40 -16.76830 -52.33863 39075 ft 452 kts 156°
2026-05-06 03:41 -16.82312 -52.30646 39074 ft 452 kts 156°
2026-05-06 03:41 -16.87792 -52.27430 39090 ft 452 kts 156°
2026-05-06 03:42 -16.93260 -52.24217 39086 ft 450 kts 156°
2026-05-06 03:42 -16.98716 -52.21008 39086 ft 450 kts 156°
2026-05-06 03:43 -17.04172 -52.17797 39099 ft 450 kts 156°
2026-05-06 03:43 -17.09633 -52.14613 39106 ft 449 kts 156°
2026-05-06 03:44 -17.15103 -52.11452 39105 ft 449 kts 156°
2026-05-06 03:44 -17.20576 -52.08291 39110 ft 449 kts 156°
2026-05-06 03:45 -17.26046 -52.05122 39113 ft 449 kts 156°
2026-05-06 03:45 -17.31469 -52.01976 39113 ft 448 kts 156°
2026-05-06 03:46 -17.36906 -51.98819 39116 ft 447 kts 156°
2026-05-06 03:46 -17.42344 -51.95662 39115 ft 446 kts 156°
2026-05-06 03:47 -17.47777 -51.92506 39119 ft 447 kts 156°
2026-05-06 03:47 -17.53212 -51.89346 39121 ft 447 kts 157°
2026-05-06 03:48 -17.58646 -51.86184 39118 ft 447 kts 156°
2026-05-06 03:48 -17.64080 -51.83019 39119 ft 447 kts 157°
2026-05-06 03:49 -17.69514 -51.79853 39125 ft 447 kts 157°
2026-05-06 03:49 -17.74935 -51.76691 39122 ft 445 kts 157°
2026-05-06 03:50 -17.80349 -51.73532 39117 ft 445 kts 157°
2026-05-06 03:50 -17.85765 -51.70370 39121 ft 445 kts 157°
2026-05-06 03:51 -17.91176 -51.67209 39117 ft 445 kts 157°
2026-05-06 03:51 -17.96595 -51.64039 39119 ft 445 kts 157°
2026-05-06 03:52 -18.02003 -51.60874 39116 ft 445 kts 157°
2026-05-06 03:52 -18.07417 -51.57704 39110 ft 445 kts 157°
2026-05-06 03:53 -18.12823 -51.54536 39110 ft 444 kts 157°
2026-05-06 03:53 -18.18217 -51.51373 39109 ft 444 kts 157°
2026-05-06 03:54 -18.23604 -51.48212 39105 ft 443 kts 157°
2026-05-06 03:54 -18.28970 -51.44998 39102 ft 444 kts 156°
2026-05-06 03:55 -18.33405 -51.42252 39101 ft 445 kts 156°
2026-05-06 03:55 -18.38729 -51.38936 39100 ft 445 kts 156°
2026-05-06 03:56 -18.44060 -51.35622 39108 ft 445 kts 156°
2026-05-06 03:56 -18.49390 -51.32314 39100 ft 443 kts 156°
2026-05-06 03:57 -18.54694 -51.29025 39094 ft 442 kts 156°
2026-05-06 03:57 -18.59991 -51.25739 39095 ft 442 kts 156°
2026-05-06 03:58 -18.65287 -51.22452 39093 ft 442 kts 156°
2026-05-06 03:58 -18.70582 -51.19161 39095 ft 441 kts 156°
2026-05-06 03:59 -18.75870 -51.15872 39088 ft 441 kts 156°
2026-05-06 03:59 -18.81149 -51.12587 39089 ft 441 kts 156°
2026-05-06 04:00 -18.86397 -51.09319 39090 ft 441 kts 156°
2026-05-06 04:00 -18.91677 -51.06028 39094 ft 441 kts 157°
2026-05-06 04:01 -18.96958 -51.02734 39089 ft 441 kts 157°
2026-05-06 04:01 -19.02234 -50.99422 39088 ft 442 kts 156°
2026-05-06 04:02 -19.07471 -50.96015 39088 ft 442 kts 155°
2026-05-06 04:02 -19.12694 -50.92578 39095 ft 442 kts 156°
2026-05-06 04:03 -19.17915 -50.89144 39086 ft 441 kts 156°
2026-05-06 04:03 -19.23128 -50.85725 39092 ft 440 kts 156°
2026-05-06 04:04 -19.28323 -50.82317 39086 ft 439 kts 156°
2026-05-06 04:04 -19.33514 -50.78910 39091 ft 439 kts 156°
2026-05-06 04:05 -19.38704 -50.75502 39087 ft 439 kts 156°
2026-05-06 04:05 -19.43884 -50.72096 39087 ft 438 kts 156°
2026-05-06 04:06 -19.49069 -50.68686 39085 ft 438 kts 156°
2026-05-06 04:06 -19.54249 -50.65276 39090 ft 438 kts 156°
2026-05-06 04:07 -19.59421 -50.61867 39090 ft 437 kts 156°
2026-05-06 04:07 -19.64569 -50.58470 39087 ft 435 kts 156°
2026-05-06 04:08 -19.69719 -50.55112 39092 ft 434 kts 157°
2026-05-06 04:08 -19.74884 -50.51786 39095 ft 434 kts 157°
2026-05-06 04:09 -19.80047 -50.48463 39099 ft 434 kts 157°
2026-05-06 04:09 -19.85206 -50.45132 39094 ft 434 kts 157°
2026-05-06 04:10 -19.90358 -50.41801 39099 ft 433 kts 157°
2026-05-06 04:10 -19.95505 -50.38469 39090 ft 432 kts 157°
2026-05-06 04:11 -20.00630 -50.35149 39097 ft 432 kts 157°
2026-05-06 04:11 -20.05759 -50.31826 39096 ft 432 kts 157°
2026-05-06 04:12 -20.10892 -50.28502 39094 ft 431 kts 158°
2026-05-06 04:12 -20.16079 -50.25338 39093 ft 429 kts 159°
2026-05-06 04:13 -20.21306 -50.22268 39093 ft 429 kts 160°
2026-05-06 04:13 -20.26530 -50.19198 39107 ft 429 kts 160°
2026-05-06 04:14 -20.31699 -50.16138 39104 ft 427 kts 160°
2026-05-06 04:14 -20.36890 -50.13054 39107 ft 427 kts 160°
2026-05-06 04:15 -20.42083 -50.09965 39106 ft 427 kts 160°
2026-05-06 04:15 -20.47269 -50.06879 39119 ft 427 kts 160°
2026-05-06 04:16 -20.52460 -50.03787 39111 ft 427 kts 160°
2026-05-06 04:16 -20.57642 -50.00698 39112 ft 427 kts 160°
2026-05-06 04:17 -20.62829 -49.97604 39114 ft 427 kts 160°
2026-05-06 04:17 -20.68010 -49.94511 39114 ft 426 kts 160°
2026-05-06 04:18 -20.73175 -49.91423 39113 ft 425 kts 160°
2026-05-06 04:18 -20.78335 -49.88338 39114 ft 425 kts 160°
2026-05-06 04:19 -20.83496 -49.85251 39114 ft 425 kts 160°
2026-05-06 04:19 -20.88654 -49.82163 39111 ft 425 kts 160°
2026-05-06 04:20 -20.93816 -49.79069 39120 ft 425 kts 160°
2026-05-06 04:20 -20.98976 -49.75974 39114 ft 425 kts 160°
2026-05-06 04:21 -21.04142 -49.72872 39111 ft 425 kts 160°
2026-05-06 04:21 -21.09256 -49.69799 39113 ft 424 kts 160°
2026-05-06 04:22 -21.14402 -49.66705 39114 ft 424 kts 160°
2026-05-06 04:23 -21.22121 -49.62060 39112 ft 424 kts 160°
2026-05-06 04:23 -21.27268 -49.58959 39114 ft 424 kts 160°
2026-05-06 04:24 -21.32412 -49.55857 39111 ft 424 kts 160°
2026-05-06 04:24 -21.37563 -49.52749 39118 ft 425 kts 160°
2026-05-06 04:25 -21.42705 -49.49643 39111 ft 424 kts 160°
2026-05-06 04:25 -21.47840 -49.46538 39114 ft 423 kts 160°
2026-05-06 04:26 -21.52968 -49.43436 39118 ft 423 kts 160°
2026-05-06 04:26 -21.58100 -49.40329 39118 ft 423 kts 160°
2026-05-06 04:27 -21.63232 -49.37220 39124 ft 423 kts 160°
2026-05-06 04:27 -21.68356 -49.34113 39114 ft 423 kts 160°
2026-05-06 04:28 -21.73484 -49.31001 39130 ft 423 kts 160°
2026-05-06 04:28 -21.78611 -49.27886 39125 ft 423 kts 160°
2026-05-06 04:29 -21.83729 -49.24774 39127 ft 423 kts 160°
2026-05-06 04:29 -21.88847 -49.21660 39127 ft 422 kts 160°
2026-05-06 04:30 -21.93963 -49.18545 39131 ft 422 kts 160°
2026-05-06 04:30 -21.99047 -49.15447 39138 ft 423 kts 160°
2026-05-06 04:31 -22.04160 -49.12314 39134 ft 425 kts 158°
2026-05-06 04:31 -22.08808 -49.08156 39138 ft 449 kts 140°
2026-05-06 04:31 -22.10651 -49.05381 39135 ft 464 kts 129°
2026-05-06 04:32 -22.12043 -49.02188 39134 ft 475 kts 122°
2026-05-06 04:32 -22.14316 -48.95430 39137 ft 482 kts 118°
2026-05-06 04:33 -22.16405 -48.88550 39137 ft 483 kts 118°
2026-05-06 04:33 -22.18507 -48.81689 38899 ft 479 kts 118°
2026-05-06 04:33 -22.19563 -48.78291 38166 ft 476 kts 118°
2026-05-06 04:34 -22.20624 -48.74910 37260 ft 476 kts 118°
2026-05-06 04:34 -22.21693 -48.71530 36337 ft 476 kts 117°
2026-05-06 04:34 -22.22765 -48.68143 35411 ft 477 kts 117°
2026-05-06 04:34 -22.23839 -48.64752 34471 ft 479 kts 116°
2026-05-06 04:35 -22.24916 -48.61345 33454 ft 480 kts 115°
2026-05-06 04:35 -22.25991 -48.57931 32458 ft 480 kts 115°
2026-05-06 04:35 -22.27057 -48.54532 31638 ft 476 kts 115°
2026-05-06 04:35 -22.28111 -48.51164 30866 ft 471 kts 114°
2026-05-06 04:36 -22.29154 -48.47833 30104 ft 466 kts 114°
2026-05-06 04:36 -22.30185 -48.44542 29312 ft 460 kts 114°
2026-05-06 04:36 -22.31200 -48.41297 28624 ft 452 kts 113°
2026-05-06 04:36 -22.32199 -48.38103 27829 ft 447 kts 113°
2026-05-06 04:37 -22.33190 -48.34939 27092 ft 441 kts 112°
2026-05-06 04:37 -22.34163 -48.31825 26372 ft 435 kts 112°
2026-05-06 04:37 -22.35127 -48.28741 25663 ft 430 kts 112°
2026-05-06 04:37 -22.36075 -48.25704 24966 ft 425 kts 111°
2026-05-06 04:38 -22.37013 -48.22698 24303 ft 419 kts 111°
2026-05-06 04:38 -22.37935 -48.19738 23677 ft 413 kts 111°
2026-05-06 04:38 -22.38845 -48.16818 22880 ft 408 kts 111°
2026-05-06 04:38 -22.39742 -48.13935 22190 ft 401 kts 111°
2026-05-06 04:39 -22.40624 -48.11098 21398 ft 397 kts 110°
2026-05-06 04:39 -22.41498 -48.08287 20676 ft 392 kts 110°
2026-05-06 04:39 -22.42360 -48.05510 19986 ft 386 kts 110°
2026-05-06 04:39 -22.43208 -48.02780 19337 ft 380 kts 110°
2026-05-06 04:40 -22.44030 -48.00128 18722 ft 374 kts 110°
2026-05-06 04:40 -22.44849 -47.97485 18054 ft 368 kts 110°
2026-05-06 04:40 -22.45656 -47.94879 17408 ft 361 kts 110°
2026-05-06 04:40 -22.46443 -47.92335 16884 ft 352 kts 110°
2026-05-06 04:41 -22.47271 -47.89895 16403 ft 341 kts 117°
2026-05-06 04:41 -22.48521 -47.87750 16003 ft 335 kts 128°
2026-05-06 04:41 -22.49954 -47.85787 15613 ft 331 kts 130°
2026-05-06 04:41 -22.51403 -47.83874 15221 ft 328 kts 130°
2026-05-06 04:42 -22.52845 -47.81974 14873 ft 326 kts 130°
2026-05-06 04:42 -22.54280 -47.80078 14464 ft 325 kts 130°
2026-05-06 04:42 -22.55701 -47.78193 14060 ft 322 kts 130°
2026-05-06 04:42 -22.57107 -47.76326 13608 ft 319 kts 130°
2026-05-06 04:43 -22.58504 -47.74467 13159 ft 317 kts 129°
2026-05-06 04:43 -22.59420 -47.73248 12858 ft 315 kts 129°
2026-05-06 04:43 -22.61256 -47.70801 12315 ft 312 kts 129°
2026-05-06 04:43 -22.62619 -47.68984 11919 ft 310 kts 129°
2026-05-06 04:44 -22.63519 -47.67785 11663 ft 309 kts 129°
2026-05-06 04:44 -22.64869 -47.65983 11276 ft 308 kts 129°
2026-05-06 04:44 -22.66216 -47.64186 10905 ft 306 kts 128°
2026-05-06 04:44 -22.68005 -47.61798 10405 ft 304 kts 128°
2026-05-06 04:45 -22.68882 -47.60626 10176 ft 301 kts 128°
2026-05-06 04:45 -22.70163 -47.58903 10117 ft 286 kts 127°
2026-05-06 04:45 -22.71338 -47.57199 9836 ft 280 kts 124°
2026-05-06 04:45 -22.72445 -47.55480 9488 ft 276 kts 123°
2026-05-06 04:46 -22.73513 -47.53761 9157 ft 274 kts 123°
2026-05-06 04:46 -22.74566 -47.52045 8828 ft 273 kts 122°
2026-05-06 04:46 -22.75617 -47.50333 8512 ft 273 kts 122°
2026-05-06 04:46 -22.76669 -47.48628 8192 ft 272 kts 123°
2026-05-06 04:47 -22.77721 -47.46933 7883 ft 271 kts 123°
2026-05-06 04:47 -22.78772 -47.45246 7593 ft 270 kts 123°
2026-05-06 04:47 -22.79825 -47.43561 7317 ft 269 kts 123°
2026-05-06 04:47 -22.80874 -47.41884 7043 ft 269 kts 123°
2026-05-06 04:48 -22.81921 -47.40209 6767 ft 268 kts 123°
2026-05-06 04:48 -22.82965 -47.38541 6483 ft 267 kts 123°
2026-05-06 04:48 -22.84009 -47.36876 6194 ft 267 kts 123°
2026-05-06 04:48 -22.85108 -47.35259 5907 ft 266 kts 126°
2026-05-06 04:49 -22.86248 -47.33688 5619 ft 265 kts 127°
2026-05-06 04:49 -22.87400 -47.32130 5334 ft 262 kts 126°
2026-05-06 04:49 -22.88516 -47.30584 5051 ft 258 kts 126°
2026-05-06 04:49 -22.89602 -47.29061 4773 ft 254 kts 126°
2026-05-06 04:50 -22.90665 -47.27564 4465 ft 246 kts 125°
2026-05-06 04:50 -22.91682 -47.26131 4210 ft 231 kts 125°
2026-05-06 04:50 -22.92616 -47.24820 3915 ft 210 kts 125°
2026-05-06 04:50 -22.93469 -47.23626 3772 ft 188 kts 125°
2026-05-06 04:51 -22.94216 -47.22583 3743 ft 163 kts 125°
2026-05-06 04:51 -22.94873 -47.21664 3754 ft 147 kts 124°
2026-05-06 04:51 -22.95467 -47.20831 3617 ft 140 kts 124°
2026-05-06 04:51 -22.96058 -47.20001 3423 ft 139 kts 124°
2026-05-06 04:52 -22.96652 -47.19169 3229 ft 139 kts 124°
2026-05-06 04:52 -22.97243 -47.18341 3046 ft 139 kts 124°
2026-05-06 04:52 -22.97837 -47.17510 2857 ft 139 kts 126°
2026-05-06 04:52 -22.98434 -47.16673 2665 ft 141 kts 127°
2026-05-06 04:53 -22.99034 -47.15837 2468 ft 140 kts 128°
2026-05-06 04:53 -22.99627 -47.15007 2267 ft 138 kts 127°
2026-05-06 04:53 -23.00209 -47.14195 2173 ft 130 kts 127°
2026-05-06 04:53 -23.00693 -47.13518 2155 ft 90 kts 128°
2026-05-06 04:54 -23.00967 -47.13136 2165 ft 43 kts 128°
2026-05-06 04:54 -23.01135 -47.12906 2158 ft 30 kts 140°
2026-05-06 04:54 -23.01268 -47.12833 2159 ft 16 kts 155°
2026-05-06 04:54 -23.01358 -47.12793 2163 ft 5 kts 159°
2026-05-06 04:55 -23.01359 -47.12792 2158 ft 0 kts 159°
2026-05-06 04:55 -23.01366 -47.12794 2160 ft 2 kts 199°
2026-05-06 04:55 -23.01386 -47.12823 2157 ft 7 kts 253°
2026-05-06 04:56 -23.01373 -47.12881 2164 ft 8 kts 302°
2026-05-06 04:56 -23.01340 -47.12929 2165 ft 10 kts 307°
2026-05-06 04:56 -23.01281 -47.13013 2157 ft 18 kts 307°
2026-05-06 04:56 -23.01194 -47.13134 2165 ft 21 kts 308°
2026-05-06 04:57 -23.01103 -47.13260 2163 ft 21 kts 308°
2026-05-06 04:57 -23.01014 -47.13384 2162 ft 21 kts 308°
2026-05-06 04:57 -23.00927 -47.13506 2161 ft 20 kts 308°
2026-05-06 04:57 -23.00842 -47.13625 2163 ft 20 kts 308°
2026-05-06 04:58 -23.00758 -47.13739 2163 ft 18 kts 310°
2026-05-06 04:58 -23.00690 -47.13837 2159 ft 15 kts 308°
2026-05-06 04:58 -23.00618 -47.13938 2159 ft 19 kts 309°
2026-05-06 04:58 -23.00529 -47.14062 2159 ft 22 kts 308°
2026-05-06 04:59 -23.00443 -47.14182 2166 ft 18 kts 307°
2026-05-06 04:59 -23.00372 -47.14280 2166 ft 15 kts 308°
2026-05-06 04:59 -23.00307 -47.14371 2160 ft 16 kts 308°
2026-05-06 04:59 -23.00237 -47.14469 2162 ft 17 kts 307°
2026-05-06 05:00 -23.00162 -47.14575 2159 ft 19 kts 306°
2026-05-06 05:00 -23.00079 -47.14688 2160 ft 20 kts 310°
2026-05-06 05:00 -23.00013 -47.14810 2163 ft 18 kts 275°
2026-05-06 05:00 -23.00069 -47.14913 2164 ft 15 kts 218°
2026-05-06 05:01 -23.00144 -47.14972 2159 ft 12 kts 218°
2026-05-06 05:01 -23.00186 -47.15007 2161 ft 0 kts 200°
2026-05-06 05:01 -23.00206 -47.15019 2165 ft 7 kts 217°
2026-05-06 05:01 -23.00265 -47.15076 2165 ft 13 kts 216°
2026-05-06 05:02 -23.00325 -47.15128 2160 ft 5 kts 225°
2026-05-06 05:02 -23.00366 -47.15160 2161 ft 9 kts 204°
2026-05-06 05:02 -23.00411 -47.15144 2159 ft 7 kts 129°
2026-05-06 05:02 -23.00441 -47.15105 2163 ft 7 kts 131°
2026-05-06 05:03 -23.00451 -47.15064 2160 ft 4 kts 60°
2026-05-06 05:03 -23.00429 -47.15045 2165 ft 4 kts 37°
2026-05-06 05:03 -23.00419 -47.15037 2163 ft 0 kts 37°